Regional Weather Roundup
Issued by NWS New Orleans/Baton Rouge, LA

Home | Current Version | Previous Version | Graphics & Text | Print | Product List | Glossary On
Versions: 1 2 3 4 5 6 7 8 9 10 11 12 13 14 15 16 17 18 19 20 21 22 23 24 25 26 27 28 29 30 31 32 33 34 35 36 37 38 39 40 41 42 43 44 45 46 47 48 49 50
236
ASUS44 KLIX 222201
RWRLIX
NEW ORLEANS REGIONAL WEATHER ROUNDUP
NATIONAL WEATHER SERVICE NEW ORLEANS LA
500 PM CDT TUE JUL 22 2014

NOTE: "FAIR" INDICATES FEW OR NO CLOUDS BELOW 12,000 FEET WITH NO
      SIGNIFICANT WEATHER AND/OR OBSTRUCTIONS TO VISIBILITY.
      SKY/WX - SKY CONDITION AND SIGNIFICANT WEATHER.
      TMP - AIR TEMPERATURE.     DP    - DEWPOINT TEMPERATURE.
      RH  - RELATIVE HUMIDITY.   PRES  - PRESSURE.
      HI  - HEAT INDEX.          WCI   - WIND CHILL INDEX.

*  THESE STATIONS ARE NOT NWS OR FAA STATIONS AND ARE NOT UNDER
   NWS QUALITY CONTROL.

LAZ038-040-048-061>063-065>067-069-222300-
SOUTHEAST LOUISIANA

CITY           SKY/WX    TMP DP  RH WIND       PRES   REMARKS
N.O. AUDUBON   NOT AVBL
N.O. INTL ARPT PTSUNNY   86  73  65 S12       30.00R
N.O. LAKEFRONT CLOUDY    84  71  65 S6        30.01S
N.O. DOWNTOWN* MOCLDY    88  70  55 S10       30.01S
SLIDELL        LGT RAIN  83  74  74 N5        29.99S
BATON ROUGE    LGT RAIN  86  72  62 CALM      29.98F
BOOTHVILLE     LGT RAIN  76  71  85 SE7       30.02F
BELLE CHASSE   PTSUNNY   84  70  61 S8        30.01R
BOGALUSA*      RAIN      75  70  84 CALM      30.03R
GALLIANO*      NOT AVBL
NEW ROADS*       N/A     87  74  63 NW8       29.99F HX  95
GONZALES*        N/A     89  69  52 E3        29.98F
HAMMOND*       CLOUDY    90  66  45 NE7       30.00F
HOUMA*         MOSUNNY   81  72  74 E6        30.01F FOG
PORT FOURCHON* PTCLDY    84  75  74 N12       30.03R

$$

MSZ070-080>082-222300-
SOUTHERN MISSISSIPPI

CITY           SKY/WX    TMP DP  RH WIND       PRES   REMARKS
MCCOMB         CLOUDY    85  72  65 NE6       30.02F
GULFPORT       PTSUNNY   83  70  64 N8        30.01R
BILOXI         NOT AVBL
PASCAGOULA     MOSUNNY   82  71  69 N6        30.01S
STENNIS ARPT*  PTSUNNY  N/A N/A N/A VRB5      30.00S THUNDER

$$

COASTAL OBSERVATIONS
LAKE AND NEARSHORE STATIONS

STATION/POSITION TIME  TEMP    WIND        PRES    WAVE
                       AIR SEA DIR/SP/G            HT/PER
                 (UTC) (F)     (DEG/KT/KT) (MB)    (FT/S)
PASCAGOULA       2100   86     220/  7/  9 1015.5
WAVELAND YACHT   2100   85     190/  7/  9 1015.2
GRAND ISLE       2100   82 85  220/  5/  9 1016.8
SOUTHWEST PASS   2100   85 86  220/  9/ 11 1016.3
NEW CANAL        2100   88 84  150/  4/  8 1016.2
SHELL BEACH      2100   85 82  170/  8/ 11 1015.6

OFFSHORE STATIONS

STATION/POSITION TIME  TEMP    WIND        PRES    WAVE
                       AIR SEA DIR/SP/G            HT/PER
                 (UTC) (F)     (DEG/KT/KT) (MB)    (FT/S)
64 S DAUPHIN ISL 2141   83 86  200/  8/ 10 1016.4

$$




USA.gov is the U.S. government's official web portal to all federal, state and local government web resources and services.